EW1490 Weather Reports


time (UTC)temp
F
wind
direction
speed
knots
gust
knots
rain 1hr
in
rain 24hr
in
rain mn
in
humidity
%
barometer
mb
20260505094023 54 148 5.2 8.7 0.00 0.00 0.00 85 1013.2
20260505093547 54 167 4.3 5.2 0.00 0.00 0.00 85 1013.4
20260505093023 54 159 3.5 6.1 0.00 0.00 0.00 85 1013.3
20260505092521 55 170 4.3 7.0 0.00 0.00 0.00 85 1013.2
20260505092032 55 161 4.3 7.0 0.00 0.00 0.00 85 1013.4
20260505091532 55 163 4.3 5.2 0.00 0.00 0.00 85 1013.4
20260505091032 55 155 3.5 6.1 0.00 0.00 0.00 84 1013.2
20260505090531 55 148 3.5 6.1 0.00 0.00 0.00 83 1013.4
20260505090032 56 153 4.3 6.1 0.00 0.00 0.00 82 1013.4
20260505085533 56 172 4.3 5.2 0.00 0.00 0.00 81 1013.5
20260505085034 56 167 4.3 6.1 0.00 0.00 0.00 81 1013.5
20260505084532 56 168 4.3 7.0 0.00 0.00 0.00 80 1013.5
20260505084014 57 145 4.3 7.0 0.00 0.00 0.00 79 1013.3
20260505083040 59 157 3.5 6.1 0.00 0.00 0.00 76 1013.4
20260505082541 59 187 2.6 5.2 0.00 0.00 0.00 74 1013.5
20260505082042 59 253 2.6 6.1 0.00 0.00 0.00 74 1013.5
20260505081525 59 225 2.6 7.0 0.00 0.00 0.00 75 1013.4
20260505081025 59 264 2.6 6.1 0.00 0.00 0.00 75 1013.4
20260505080526 59 266 2.6 7.8 0.00 0.00 0.00 75 1013.6
20260505080052 59 261 3.5 7.8 0.00 0.00 0.00 74 1013.5
20260505075529 59 265 3.5 7.0 0.00 0.00 0.00 74 1013.5
20260505075053 59 250 2.6 7.8 0.00 0.00 0.00 74 1013.5
20260505074513 59 245 3.5 7.8 0.00 0.00 0.00 73 1013.6
20260505074030 60 261 3.5 7.8 0.00 0.00 0.00 73 1013.7
20260505073525 60 259 3.5 8.7 0.00 0.00 0.00 72 1013.7
20260505073022 60 296 3.5 8.7 0.00 0.00 0.00 72 1013.7
20260505072519 60 260 2.6 8.7 0.00 0.00 0.00 71 1013.7
20260505072019 61 259 2.6 6.1 0.00 0.00 0.00 71 1013.5
20260505071520 61 242 2.6 9.6 0.00 0.00 0.00 71 1013.6
20260505071016 61 284 2.6 9.6 0.00 0.00 0.00 70 1013.5
20260505070538 61 242 3.5 10.4 0.00 0.00 0.00 70 1013.5
20260505070014 61 218 3.5 10.4 0.00 0.00 0.00 70 1013.5
20260505065514 61 182 2.6 7.0 0.00 0.00 0.00 69 1013.6
20260505065017 61 241 2.6 7.0 0.00 0.00 0.00 69 1013.6
20260505064519 61 224 2.6 14.8 0.00 0.00 0.00 69 1013.6
20260505064018 61 189 4.3 14.8 0.00 0.00 0.00 68 1013.8
20260505063519 62 220 3.5 10.4 0.00 0.00 0.00 68 1013.6
20260505063021 62 213 4.3 13.0 0.00 0.00 0.00 67 1013.7
20260505062521 62 211 4.3 12.2 0.00 0.00 0.00 67 1013.8
20260505062021 62 219 3.5 7.0 0.00 0.00 0.00 66 1013.8
20260505061521 62 207 3.5 7.0 0.00 0.00 0.00 66 1013.7
20260505061022 62 219 3.5 8.7 0.00 0.00 0.00 66 1013.8
20260505060523 62 237 4.3 10.4 0.00 0.00 0.00 66 1013.9
20260505060025 62 215 3.5 10.4 0.00 0.00 0.00 65 1014.0
20260505055526 62 191 3.5 8.7 0.00 0.00 0.00 65 1014.0
20260505055042 62 213 3.5 8.7 0.00 0.00 0.00 64 1014.1
20260505054521 63 213 2.6 8.7 0.00 0.00 0.00 64 1014.1
20260505054019 63 198 2.6 7.0 0.00 0.00 0.00 64 1014.0
20260505053521 63 183 2.6 7.0 0.00 0.00 0.00 63 1014.0
20260505053022 62 205 3.5 7.8 0.00 0.00 0.00 64 1014.0
20260505052549 62 209 3.5 7.8 0.00 0.00 0.00 64 1014.0
20260505052026 61 224 3.5 7.0 0.00 0.00 0.00 64 1014.0
20260505051529 61 200 4.3 7.0 0.00 0.00 0.00 64 1013.9
20260505051030 61 160 1.7 6.1 0.00 0.00 0.00 65 1013.8
20260505050514 62 149 4.3 7.8 0.00 0.00 0.00 62 1013.9
20260505041523 67 179 2.6 6.1 0.00 0.00 0.00 52 1013.6
20260505041023 67 209 2.6 5.2 0.00 0.00 0.00 52 1013.6
20260505040523 67 204 2.6 6.1 0.00 0.00 0.00 52 1013.6
20260505040045 66 174 2.6 6.1 0.00 0.00 0.00 52 1013.7
20260505035520 66 213 2.6 6.1 0.00 0.00 0.00 53 1013.7
20260505035018 65 172 3.5 6.1 0.00 0.00 0.00 54 1013.7
20260505034540 65 161 2.6 4.3 0.00 0.00 0.00 55 1013.7
20260505034020 65 175 3.5 4.3 0.00 0.00 0.00 55 1013.8
20260505033521 65 169 3.5 4.3 0.00 0.00 0.00 54 1013.9
20260505033021 66 230 1.7 4.3 0.00 0.00 0.00 53 1013.7
20260505032540 66 200 2.6 4.3 0.00 0.00 0.00 53 1013.8
20260505032020 66 182 1.7 4.3 0.00 0.00 0.00 53 1013.9
20260505031540 66 180 2.6 4.3 0.00 0.00 0.00 53 1013.9
20260505031022 66 192 2.6 4.3 0.00 0.00 0.00 53 1013.8
20260505030540 66 178 2.6 4.3 0.00 0.00 0.00 53 1013.8
20260505030041 66 182 2.6 3.5 0.00 0.00 0.00 53 1013.9
20260505025520 66 160 2.6 3.5 0.00 0.00 0.00 53 1013.9
20260505025024 67 166 1.7 4.3 0.00 0.00 0.00 50 1013.9
20260505024526 68 194 2.6 5.2 0.00 0.00 0.00 48 1013.9
20260505024050 68 196 2.6 5.2 0.00 0.00 0.00 48 1013.9
20260505023518 69 188 2.6 7.0 0.00 0.00 0.00 48 1013.9
20260505023022 69 217 2.6 7.8 0.00 0.00 0.00 47 1013.9
20260505022523 69 207 2.6 7.8 0.00 0.00 0.00 47 1013.9
20260505022052 69 219 2.6 6.1 0.00 0.00 0.00 48 1013.8
20260505021514 69 220 2.6 7.0 0.00 0.00 0.00 48 1013.8
20260505021029 68 215 2.6 6.1 0.00 0.00 0.00 48 1013.8
20260505020517 68 192 2.6 5.2 0.00 0.00 0.00 48 1013.7
20260505020020 68 189 2.6 6.1 0.00 0.00 0.00 49 1013.7
20260505015521 68 176 3.5 6.1 0.00 0.00 0.00 48 1013.6
20260505015027 68 198 2.6 5.2 0.00 0.00 0.00 48 1013.6
20260505014514 68 167 2.6 6.1 0.00 0.00 0.00 48 1013.5
20260505014038 69 220 2.6 6.1 0.00 0.00 0.00 48 1013.6
20260505013519 69 242 2.6 5.2 0.00 0.00 0.00 47 1013.5
20260505013021 69 244 2.6 5.2 0.00 0.00 0.00 47 1013.6
20260505012519 69 207 2.6 5.2 0.00 0.00 0.00 47 1013.4
20260505012021 69 200 2.6 4.3 0.00 0.00 0.00 47 1013.4
20260505011522 69 209 1.7 4.3 0.00 0.00 0.00 47 1013.3
20260505011040 69 191 2.6 5.2 0.00 0.00 0.00 47 1013.3
20260505010544 69 173 2.6 6.1 0.00 0.00 0.00 47 1013.2
20260505010023 69 170 2.6 6.1 0.00 0.00 0.00 48 1013.3
20260505005524 69 175 2.6 5.2 0.00 0.00 0.00 49 1013.3
20260505005025 69 218 2.6 6.1 0.00 0.00 0.00 49 1013.3
20260505004527 69 175 2.6 7.0 0.00 0.00 0.00 50 1013.3
20260505004028 69 190 3.5 6.1 0.00 0.00 0.00 51 1013.2
20260505003518 69 171 2.6 5.2 0.00 0.00 0.00 51 1013.1
20260505003022 69 180 1.7 5.2 0.00 0.00 0.00 51 1013.2
20260505002525 68 180 1.7 5.2 0.00 0.00 0.00 52 1013.1
20260505002026 69 158 2.6 7.0 0.00 0.00 0.00 52 1013.1
20260505001522 69 155 3.5 7.0 0.00 0.00 0.00 52 1013.1
20260505001017 70 152 3.5 6.1 0.00 0.00 0.00 51 1013.0
20260505000517 70 138 2.6 4.3 0.00 0.00 0.00 50 1013.1
20260505000020 71 161 2.6 5.2 0.00 0.00 0.00 49 1013.2
20260504235520 71 166 2.6 7.0 0.00 0.00 0.00 48 1013.0
20260504235045 72 141 4.3 7.8 0.00 0.00 0.00 48 1013.1
20260504234526 72 162 4.3 7.8 0.00 0.00 0.00 47 1013.2
20260504234051 73 160 3.5 7.0 0.00 0.00 0.00 46 1013.3
20260504233519 73 163 2.6 7.8 0.00 0.00 0.00 45 1013.3
20260504233024 74 171 5.2 11.3 0.00 0.00 0.00 44 1013.4
20260504232531 74 169 5.2 11.3 0.00 0.00 0.00 45 1013.2
20260504232031 74 171 4.3 9.6 0.00 0.00 0.00 45 1013.3
20260504231521 74 154 5.2 9.6 0.00 0.00 0.00 43 1013.3
20260504231017 75 161 2.6 6.1 0.00 0.00 0.00 45 1013.3
20260504230519 75 157 3.5 7.8 0.00 0.00 0.00 41 1013.3
20260504230018 75 193 2.6 13.0 0.00 0.00 0.00 39 1013.4
20260504225538 76 192 4.3 13.0 0.00 0.00 0.00 43 1013.4
20260504225020 76 190 3.5 8.7 0.00 0.00 0.00 39 1013.4
20260504224521 76 163 1.7 7.8 0.00 0.00 0.00 40 1013.4
20260504224048 76 175 3.5 7.8 0.00 0.00 0.00 40 1013.5
20260504223552 76 158 3.5 8.7 0.00 0.00 0.00 40 1013.4
20260504223031 76 176 3.5 8.7 0.00 0.00 0.00 40 1013.5
20260504222530 77 199 3.5 7.0 0.00 0.00 0.00 39 1013.6
20260504222028 77 163 2.6 7.8 0.00 0.00 0.00 41 1013.5
20260504221530 77 232 2.6 8.7 0.00 0.00 0.00 40 1013.5
20260504221016 77 169 2.6 8.7 0.00 0.00 0.00 37 1013.7
20260504220517 77 136 2.6 7.8 0.00 0.00 0.00 40 1013.7
20260504220019 77 172 4.3 7.8 0.00 0.00 0.00 39 1013.6
20260504215521 77 256 5.2 8.7 0.00 0.00 0.00 38 1013.6
20260504215019 78 160 2.6 8.7 0.00 0.00 0.00 42 1013.7
20260504214541 77 185 6.1 9.6 0.00 0.00 0.00 41 1013.8
20260504214022 77 193 0.9 7.8 0.00 0.00 0.00 37 1013.7
20260504213524 78 296 2.6 7.8 0.00 0.00 0.00 40 1013.9
20260504213029 78 234 3.5 7.8 0.00 0.00 0.00 40 1013.8
20260504212513 79 161 2.6 7.8 0.00 0.00 0.00 40 1013.9
20260504212021 79 167 2.6 12.2 0.00 0.00 0.00 43 1013.8
20260504211520 78 197 4.3 12.2 0.00 0.00 0.00 42 1013.7
20260504211021 78 186 4.3 12.2 0.00 0.00 0.00 40 1013.9
20260504210546 78 214 4.3 10.4 0.00 0.00 0.00 41 1014.0
20260504210015 79 215 4.3 10.4 0.00 0.00 0.00 37 1013.8
20260504205517 79 118 1.7 8.7 0.00 0.00 0.00 38 1014.0
20260504205042 77 178 6.1 8.7 0.00 0.00 0.00 39 1014.1
20260504204524 77 182 4.3 12.2 0.00 0.00 0.00 37 1014.1
20260504204024 78 182 7.8 13.0 0.00 0.00 0.00 40 1014.0
20260504203523 78 217 6.1 13.0 0.00 0.00 0.00 41 1014.0
20260504203023 78 131 4.3 9.6 0.00 0.00 0.00 45 1014.1
20260504202525 76 155 1.7 9.6 0.00 0.00 0.00 46 1014.2
20260504202044 76 121 4.3 13.0 0.00 0.00 0.00 43 1014.2
20260504201523 78 161 7.8 13.0 0.00 0.00 0.00 42 1014.1
20260504201025 79 152 4.3 7.8 0.00 0.00 0.00 39 1014.2
20260504200526 80 142 3.5 9.6 0.00 0.00 0.00 45 1014.2
20260504200025 79 167 4.3 9.6 0.00 0.00 0.00 40 1014.3
20260504195530 79 341 1.7 11.3 0.00 0.00 0.00 42 1014.4
20260504195018 79 135 4.3 11.3 0.00 0.00 0.00 45 1014.5
20260504194522 78 136 1.7 7.8 0.00 0.00 0.00 46 1014.5
20260504194024 78 128 5.2 7.8 0.00 0.00 0.00 44 1014.6
20260504193524 78 209 3.5 8.7 0.00 0.00 0.00 40 1014.7
20260504193025 78 143 4.3 8.7 0.00 0.00 0.00 44 1014.6
20260504192531 78 180 4.3 10.4 0.00 0.00 0.00 41 1014.7
20260504192013 79 138 6.1 10.4 0.00 0.00 0.00 42 1014.8
20260504191532 78 162 3.5 6.1 0.00 0.00 0.00 40 1014.8
20260504191047 78 128 0.9 7.0 0.00 0.00 0.00 41 1014.9
20260504190515 78 167 3.5 8.7 0.00 0.00 0.00 46 1015.0
20260504190016 77 155 2.6 8.7 0.00 0.00 0.00 43 1015.2
20260504185517 77 178 1.7 6.1 0.00 0.00 0.00 40 1015.4
20260504185021 78 225 1.7 7.8 0.00 0.00 0.00 44 1015.3
20260504184524 77 111 5.2 7.8 0.00 0.00 0.00 43 1015.4
20260504184027 77 146 4.3 9.6 0.00 0.00 0.00 45 1015.5
20260504183532 77 159 6.1 9.6 0.00 0.00 0.00 43 1015.4
20260504183018 76 113 3.5 7.0 0.00 0.00 0.00 44 1015.6
20260504182523 77 242 1.7 8.7 0.00 0.00 0.00 49 1015.7
20260504182025 77 193 4.3 9.6 0.00 0.00 0.00 41 1015.7
20260504181528 77 246 1.7 6.1 0.00 0.00 0.00 45 1015.7
20260504181032 78 271 0.9 6.1 0.00 0.00 0.00 47 1015.7
20260504180537 76 77 2.6 7.0 0.00 0.00 0.00 45 1015.8
20260504180037 76 228 1.7 7.0 0.00 0.00 0.00 44 1015.9
20260504175541 76 207 1.7 7.0 0.00 0.00 0.00 44 1016.0
20260504175021 77 200 5.2 8.7 0.00 0.00 0.00 45 1016.2
20260504174523 76 145 3.5 7.8 0.00 0.00 0.00 45 1016.0
20260504174019 75 133 5.2 7.8 0.00 0.00 0.00 46 1016.1
20260504173522 75 174 1.7 5.2 0.00 0.00 0.00 45 1016.1
20260504173024 75 257 1.7 4.3 0.00 0.00 0.00 48 1016.1
20260504172523 75 265 1.7 5.2 0.00 0.00 0.00 46 1016.3
20260504172044 75 313 3.5 5.2 0.00 0.00 0.00 47 1016.3
20260504171529 75 296 3.5 7.8 0.00 0.00 0.00 46 1016.4
20260504171028 75 267 1.7 7.8 0.00 0.00 0.00 49 1016.6
20260504170518 75 239 0.9 5.2 0.00 0.00 0.00 53 1016.6
20260504151029 68 280 2.6 7.0 0.00 0.00 0.00 58 1017.3
20260504150516 67 244 2.6 7.0 0.00 0.00 0.00 62 1017.2
20260504141019 63 145 2.6 6.1 0.00 0.00 0.00 65 1017.5
20260504140522 62 198 3.5 6.1 0.00 0.00 0.00 65 1017.4
20260504130527 56 189 2.6 4.3 0.00 0.00 0.00 73 1017.4
20260504110525 54 193 2.6 5.2 0.00 0.00 0.00 67 1016.9
20260504100521 58 235 1.7 6.1 0.00 0.00 0.00 58 1016.8